This is the latest recevied weather packets stored in our database for station/object AB4KN. If no packets are shown the sender has not sent any weather packets the latest 10 day(s).
| Time | Temp. | Humidity | Pressure | Rain* | Wind** | Luminosity | Snow |
|---|---|---|---|---|---|---|---|
| 1777683320 | 15.56° C | 81% | 1017.8 hPa | 0 mm | - | 0 W/m² | - |
| 1777683018 | 15.56° C | 80% | 1017.6 hPa | 0 mm | - | 0 W/m² | - |
| 1777682713 | 16.11° C | 80% | 1017.8 hPa | 0 mm | - | 0 W/m² | - |
| 1777682410 | 16.11° C | 80% | 1017.7 hPa | 0 mm | - | 0 W/m² | - |
| 1777682108 | 16.11° C | 80% | 1017.6 hPa | 0 mm | - | 0 W/m² | - |
| 1777681804 | 16.11° C | 80% | 1017.7 hPa | 0 mm | - | 0 W/m² | - |
| 1777681501 | 16.11° C | 79% | 1017.8 hPa | 0 mm | - | 0 W/m² | - |
| 1777681198 | 16.11° C | 79% | 1017.9 hPa | 0 mm | - | 0 W/m² | - |
| 1777680896 | 16.11° C | 78% | 1017.8 hPa | 0 mm | - | 0 W/m² | - |
| 1777680593 | 16.11° C | 78% | 1017.5 hPa | 0 mm | - | 0 W/m² | - |
| 1777680292 | 16.11° C | 77% | 1017.6 hPa | 0 mm | - | 0 W/m² | - |
| 1777679987 | 16.11° C | 76% | 1017.7 hPa | 0 mm | - | 0 W/m² | - |
| 1777679683 | 16.11° C | 76% | 1017.4 hPa | 0 mm | - | 1 W/m² | - |
| 1777679378 | 16.11° C | 75% | 1017.5 hPa | 0 mm | - | 2 W/m² | - |
| 1777679075 | 16.11° C | 74% | 1017.5 hPa | 0 mm | - | 1 W/m² | - |
| 1777678774 | 16.11° C | 74% | 1017.4 hPa | 0 mm | - | 1 W/m² | - |
| 1777678471 | 16.11° C | 73% | 1017.7 hPa | 0 mm | - | 3 W/m² | - |
| 1777678167 | 16.11° C | 72% | 1017.7 hPa | 0 mm | - | 5 W/m² | - |
| 1777677864 | 16.67° C | 73% | 1017.2 hPa | 0 mm | - | 5 W/m² | - |
| 1777677561 | 16.67° C | 73% | 1017.4 hPa | 0 mm | - | 6 W/m² | - |
| 1777677260 | 16.67° C | 74% | 1017.5 hPa | 0 mm | - | 7 W/m² | - |
| 1777676957 | 16.67° C | 74% | 1017.5 hPa | 0 mm | - | 9 W/m² | - |
| 1777676656 | 16.67° C | 73% | 1017.9 hPa | 0 mm | - | 9 W/m² | - |
| 1777676353 | 16.67° C | 72% | 1017.6 hPa | 0 mm | - | 12 W/m² | - |
| 1777676051 | 16.67° C | 72% | 1017.6 hPa | 0 mm | - | 9 W/m² | - |
* Rain latest hour (hover to see other rain measurements)
** Current wind speed in m/s (hover to see current wind gust speed)